Location: Assche-ter-Heiden
(50.9174°N, 4.1574°E)
Time: 10:58:31
(UTC+00:00)

NOSS 3-2 (A) - Pass Details

Date: 20 January 2020
Orbit: 810 x 1398 km, 63.4° (Epoch: 10 February)

Event Time Altitude Azimuth Distance (km) Brightness Sun altitude
Exits shadow 04:15:49 53° 338° (NNW) 1,455 4.2 -31.0°
Maximum altitude 04:17:42 72° 41° (NE) 1,295 4.1 -30.7°
Drops below altitude 10° 04:25:56 10° 126° (SE) 3,374 6.9 -29.4°
Sets 04:28:57 0° 129° (SE) 4,391 7.6 -28.9°
